LEMUR-2-BAXTER-OLIVER (46925 NORAD) Tracking and Keplerian Element Data

This shows tracking and keplerian element data for the satellite.

Feedback or suggestion? Click here.




ElementValue
Catalog46925
NameLEMUR-2-BAXTER-OLIVER
Epoch Orbit1193
Epoch Day21.18783884
Epoch Year2021
RAAN348.4014
Inclination51.644
Eccentricity0.0001186
Argument of Perigee350.278
Mean Anonmoly9.8187
Mean Motion15.53149581
Decay Rate0.00017474
L11 46925U 98067RV 21021.18783884 .00017474 00000-0 28033-3 0 9991
L22 46925 51.6440 348.4014 0001186 350.2780 9.8187 15.53149581 11932

Live tracking and technical data element details for LEMUR-2-BAXTER-OLIVER (NORAD 46925). LEMUR-2-BAXTER-OLIVER can be tracked NOW for your location showing map with azimuth and elevation plus other details from your city location.

Track the satellite on the map from your city or location and see movement details for azimuth, elevation, latitude, longitude, range, height, and movement on the map or in text.







IsCatalogInMostPopularTable: catalog: 46925, numindb: 23
Update: records affected: 1



GetName: 46925 LEMUR-2-BAXTER-OLIVER

Hit Count: updated at: Fri, 22 Jan 2021 20:09:37 GMT